SP2MO EPWR-EPWR

Flight info

Callsign SP2MO
Flight time 0h 25m
Altitude 1000
Route VFR PATTERNS
Aircraft C172/L-V/N

Departure

Time 2026-05-07 18:04
Airport Copernicus Wrocław Airport (EPWR)

Arrival

Time 2026-05-07 18:29
Airport Copernicus Wrocław Airport (EPWR)
Time Latitude Longitude Altitude Speed Heading
2026-05-07 17:51 51.11015 16.87517 407 ft 0 kts 38°
2026-05-07 17:59 51.11010 16.87553 407 ft 9 kts 163°
2026-05-07 18:00 51.10957 16.87484 407 ft 10 kts 231°
2026-05-07 18:00 51.10933 16.87409 407 ft 7 kts 208°
2026-05-07 18:00 51.10888 16.87374 407 ft 8 kts 206°
2026-05-07 18:00 51.10830 16.87330 407 ft 9 kts 206°
2026-05-07 18:01 51.10768 16.87280 407 ft 12 kts 207°
2026-05-07 18:01 51.10682 16.87251 407 ft 15 kts 145°
2026-05-07 18:01 51.10636 16.87427 406 ft 19 kts 114°
2026-05-07 18:01 51.10559 16.87616 405 ft 21 kts 135°
2026-05-07 18:02 51.10564 16.87672 405 ft 0 kts 297°
2026-05-07 18:03 51.10629 16.87418 406 ft 50 kts 296°
2026-05-07 18:03 51.10789 16.86748 469 ft 76 kts 294°
2026-05-07 18:03 51.10899 16.85835 575 ft 94 kts 281°
2026-05-07 18:03 51.10976 16.84850 836 ft 86 kts 294°
2026-05-07 18:04 51.11381 16.84234 1014 ft 82 kts 347°
2026-05-07 18:04 51.11957 16.84484 1090 ft 94 kts 25°
2026-05-07 18:04 51.12533 16.85051 1212 ft 99 kts 50°
2026-05-07 18:04 51.12687 16.86116 1308 ft 108 kts 100°
2026-05-07 18:05 51.12446 16.87269 1344 ft 113 kts 102°
2026-05-07 18:05 51.12207 16.88451 1320 ft 113 kts 105°
2026-05-07 18:05 51.11971 16.89608 1341 ft 108 kts 102°
2026-05-07 18:05 51.11741 16.90749 1310 ft 108 kts 110°
2026-05-07 18:06 51.11415 16.91811 1322 ft 107 kts 112°
2026-05-07 18:06 51.11011 16.92745 1353 ft 104 kts 144°
2026-05-07 18:06 51.10317 16.92975 1342 ft 98 kts 186°
2026-05-07 18:06 51.09742 16.92541 1252 ft 91 kts 236°
2026-05-07 18:07 51.09517 16.91606 987 ft 94 kts 270°
2026-05-07 18:07 51.09643 16.90621 741 ft 91 kts 298°
2026-05-07 18:07 51.09905 16.89781 476 ft 79 kts 301°
2026-05-07 18:07 51.10121 16.89107 406 ft 56 kts 298°
2026-05-07 18:08 51.10308 16.88438 425 ft 82 kts 296°
2026-05-07 18:08 51.10556 16.87505 529 ft 97 kts 298°
2026-05-07 18:08 51.10839 16.86497 729 ft 102 kts 299°
2026-05-07 18:08 51.11362 16.85846 952 ft 97 kts 356°
2026-05-07 18:09 51.12010 16.86119 1126 ft 98 kts 29°
2026-05-07 18:09 51.12563 16.86705 1284 ft 93 kts 49°
2026-05-07 18:09 51.12633 16.87732 1335 ft 105 kts 101°
2026-05-07 18:09 51.12378 16.88928 1197 ft 122 kts 108°
2026-05-07 18:10 51.12073 16.90138 1228 ft 116 kts 111°
2026-05-07 18:10 51.11901 16.91344 1354 ft 103 kts 72°
2026-05-07 18:10 51.12402 16.92060 1291 ft 102 kts 24°
2026-05-07 18:10 51.13040 16.92440 1312 ft 91 kts 18°
2026-05-07 18:11 51.13614 16.92898 1267 ft 90 kts 24°
2026-05-07 18:11 51.13989 16.93120 1270 ft 86 kts 20°
2026-05-07 18:11 51.14848 16.93419 1052 ft 99 kts 343°
2026-05-07 18:11 51.15167 16.92470 986 ft 104 kts 289°
2026-05-07 18:12 51.15313 16.91338 948 ft 97 kts 297°
2026-05-07 18:12 51.15161 16.90380 921 ft 104 kts 205°
2026-05-07 18:12 51.14726 16.90986 874 ft 98 kts 103°
2026-05-07 18:12 51.14426 16.92015 811 ft 104 kts 111°
2026-05-07 18:13 51.14256 16.92718 691 ft 107 kts 96°
2026-05-07 18:13 51.14802 16.93305 691 ft 95 kts 300°
2026-05-07 18:13 51.14875 16.92365 802 ft 91 kts 287°
2026-05-07 18:13 51.14974 16.91354 821 ft 96 kts 274°
2026-05-07 18:14 51.14471 16.91015 906 ft 100 kts 134°
2026-05-07 18:14 51.14101 16.91992 908 ft 103 kts 112°
2026-05-07 18:14 51.13873 16.93074 976 ft 96 kts 83°
2026-05-07 18:14 51.14323 16.93561 1086 ft 75 kts 341°
2026-05-07 18:15 51.14640 16.92876 1106 ft 91 kts 296°
2026-05-07 18:15 51.14674 16.91964 1317 ft 86 kts 249°
2026-05-07 18:15 51.14160 16.91854 1235 ft 97 kts 110°
2026-05-07 18:15 51.13867 16.92847 1225 ft 100 kts 110°
2026-05-07 18:16 51.13801 16.93859 1349 ft 89 kts 41°
2026-05-07 18:16 51.14275 16.93418 1274 ft 97 kts 306°
2026-05-07 18:16 51.14597 16.92469 1391 ft 95 kts 297°
2026-05-07 18:16 51.14753 16.91763 1378 ft 102 kts 283°
2026-05-07 18:17 51.14156 16.91608 1470 ft 97 kts 96°
2026-05-07 18:17 51.13947 16.92691 1394 ft 108 kts 110°
2026-05-07 18:17 51.13726 16.93429 1360 ft 108 kts 115°
2026-05-07 18:17 51.13555 16.94495 1414 ft 94 kts 62°
2026-05-07 18:18 51.14103 16.94609 1307 ft 101 kts 314°
2026-05-07 18:18 51.14330 16.93518 1182 ft 106 kts 294°
2026-05-07 18:18 51.14498 16.92437 1208 ft 99 kts 299°
2026-05-07 18:18 51.14768 16.91456 1229 ft 98 kts 279°
2026-05-07 18:19 51.14329 16.90948 1234 ft 98 kts 135°
2026-05-07 18:19 51.13965 16.91881 1081 ft 110 kts 119°
2026-05-07 18:19 51.13609 16.92945 1041 ft 105 kts 113°
2026-05-07 18:19 51.13259 16.93973 960 ft 110 kts 107°
2026-05-07 18:20 51.13501 16.94825 972 ft 94 kts
2026-05-07 18:20 51.13951 16.94202 1013 ft 95 kts 298°
2026-05-07 18:20 51.13828 16.93250 999 ft 102 kts 203°
2026-05-07 18:20 51.13096 16.93092 889 ft 110 kts 181°
2026-05-07 18:21 51.12376 16.93401 853 ft 110 kts 156°
2026-05-07 18:21 51.11672 16.93683 916 ft 96 kts 173°
2026-05-07 18:21 51.11031 16.93756 934 ft 87 kts 191°
2026-05-07 18:21 51.10397 16.93550 909 ft 94 kts 205°
2026-05-07 18:22 51.09881 16.93033 860 ft 88 kts 227°
2026-05-07 18:22 51.09649 16.92498 843 ft 88 kts 245°
2026-05-07 18:22 51.09930 16.91662 840 ft 78 kts 356°
2026-05-07 18:22 51.10414 16.91985 894 ft 78 kts 38°
2026-05-07 18:23 51.10560 16.92773 906 ft 91 kts 114°
2026-05-07 18:23 51.09976 16.93143 871 ft 92 kts 197°
2026-05-07 18:23 51.09651 16.92369 855 ft 88 kts 268°
2026-05-07 18:23 51.09602 16.91362 718 ft 95 kts 277°
2026-05-07 18:24 51.09732 16.90358 598 ft 91 kts 296°
2026-05-07 18:24 51.09986 16.89501 422 ft 74 kts 300°
2026-05-07 18:24 51.10183 16.88903 405 ft 53 kts 296°
2026-05-07 18:24 51.10356 16.88192 503 ft 78 kts 289°
2026-05-07 18:25 51.10598 16.87240 588 ft 96 kts 300°
2026-05-07 18:25 51.11052 16.86790 850 ft 84 kts 26°
2026-05-07 18:25 51.11631 16.87193 1008 ft 94 kts 47°
2026-05-07 18:25 51.11539 16.88278 1037 ft 117 kts 112°
2026-05-07 18:26 51.11197 16.89527 1031 ft 120 kts 108°
2026-05-07 18:26 51.10912 16.90731 1002 ft 115 kts 106°
2026-05-07 18:26 51.10687 16.91923 1019 ft 109 kts 101°
2026-05-07 18:26 51.10438 16.93074 1020 ft 104 kts 105°
2026-05-07 18:27 51.10279 16.94046 942 ft 85 kts 90°
2026-05-07 18:27 51.10081 16.94986 972 ft 91 kts 128°
2026-05-07 18:27 51.09503 16.95078 1046 ft 91 kts 202°
2026-05-07 18:27 51.09142 16.94725 1073 ft 93 kts 231°
2026-05-07 18:28 51.08909 16.93419 942 ft 101 kts 282°
2026-05-07 18:28 51.09106 16.92339 786 ft 106 kts 296°
2026-05-07 18:28 51.09392 16.91433 718 ft 84 kts 302°
2026-05-07 18:28 51.09619 16.90592 637 ft 81 kts 297°
2026-05-07 18:29 51.09898 16.89798 507 ft 84 kts 303°
2026-05-07 18:29 51.10115 16.89065 410 ft 61 kts 305°
2026-05-07 18:29 51.10283 16.88575 407 ft 42 kts 295°
2026-05-07 18:29 51.10396 16.88191 409 ft 35 kts 294°
2026-05-07 18:30 51.10514 16.87788 406 ft 47 kts 295°
2026-05-07 18:30 51.10644 16.87356 406 ft 31 kts 295°
2026-05-07 18:30 51.10590 16.87161 407 ft 17 kts 199°
2026-05-07 18:30 51.10490 16.87086 407 ft 15 kts 205°
2026-05-07 18:31 51.10426 16.87147 407 ft 11 kts 106°
2026-05-07 18:31 51.10382 16.87294 407 ft 32 kts 116°
2026-05-07 18:31 51.10255 16.87720 406 ft 41 kts 114°
2026-05-07 18:31 51.10111 16.88055 406 ft 33 kts 127°
2026-05-07 18:32 51.10020 16.88177 406 ft 8 kts 226°
2026-05-07 18:32 51.10009 16.88148 406 ft 0 kts 215°